Location: ????????
(41.2031°N, 22.5756°E)
Time: 14:43:29
(UTC+00:00)

Cosmos 1656 Rocket - Pass Details

Date: 01 December 2020
Orbit: 796 x 846 km, 71.1° (Epoch: 20 January)

Event Time Altitude Azimuth Distance (km) Brightness Sun altitude
Rises 17:05:31 0° 336° (NNW) 3,399 7.0 -22.8°
Reaches altitude 10° 17:07:58 10° 337° (NNW) 2,455 6.3 -23.2°
Maximum altitude 17:13:37 89° 59° (ENE) 833 3.5 -24.3°
Enters shadow 17:17:34 20° 158° (SSE) 1,815 5.3 -25.0°
